STARLINK-32369 (60917 NORAD) Tracking and Keplerian Element Data

This shows tracking and keplerian element data for the satellite.

Feedback or suggestion? Click here.




ElementValue
Catalog60917
NameSTARLINK-32369
Epoch Orbit781
Epoch Day286.84236803
Epoch Year2024
RAAN146.1091
Inclination53.1612
Eccentricity0.0001439
Argument of Perigee87.9641
Mean Anonmoly272.1529
Mean Motion15.39653589
Decay Rate0.00012801
L11 60917U 24154Q 24286.84236803 .00012801 00000+0 32910-3 0 9994
L22 60917 53.1612 146.1091 0001439 87.9641 272.1529 15.39653589 7815



Live tracking and technical data element details for STARLINK-32369 (NORAD 60917). STARLINK-32369 can be tracked NOW for your location showing map with azimuth and elevation plus other details from your city location.







IsCatalogInMostPopularTable: catalog: 60917, numindb: 9
Update: records affected: 1



GetName: 60917 STARLINK-32369

Hit Count: updated at: Wed, 04 Dec 2024 18:20:49 GMT